Location: Unspecified
(0.0000°N, 0.0000°E)
Time: 13:54:33
(UTC+00:00)

Vanguard 2 - Pass Details

Date: 25 September 2019
Orbit: 554 x 2937 km, 32.9° (Epoch: 13 October)

Event Time Altitude Azimuth Distance (km) Brightness Sun altitude
Rises 11:02:05 0° 283° (WNW) 2,838 10.3 77.5°
Reaches altitude 10° 11:04:46 10° 267° (W) 1,843 9.5 78.2°
Maximum altitude 11:07:59 23° 213° (SSW) 1,196 8.8 79.0°
Drops below altitude 10° 11:11:21 10° 158° (SSE) 1,920 9.8 79.9°
Sets 11:14:12 0° 143° (SE) 2,993 10.7 80.6°
